Time,TemperatureF,DewpointF,PressureIn,WindDirection,WindDirectionDegrees,WindSpeedMPH,WindSpeedGustMPH,Humidity,HourlyPrecipIn,Conditions,Clouds,dailyrainin,SoftwareType,DateUTC
2013-01-10 00:03:00,35.0,-99.9,-100.00,SE,128,2.0,-999.0,-999,0.00,,,-99.99,,2013-01-10 06:03:00,
2013-01-10 00:12:00,35.0,-99.9,-100.00,SE,128,2.0,-999.0,-999,0.00,,,-99.99,,2013-01-10 06:12:00,
2013-01-10 00:22:00,35.0,-99.9,-100.00,SE,128,2.0,-999.0,-999,0.00,,,-99.99,,2013-01-10 06:22:00,
2013-01-10 00:30:00,32.0,-99.9,-100.00,ENE,64,1.0,-999.0,-999,0.00,,,0.00,,2013-01-10 06:30:00,
2013-01-10 00:32:00,34.0,-99.9,-100.00,ENE,68,0.0,-999.0,-999,0.00,,,-99.99,,2013-01-10 06:32:00,
2013-01-10 00:42:00,34.0,-99.9,-100.00,ENE,68,0.0,-999.0,-999,0.00,,,-99.99,,2013-01-10 06:42:00,
2013-01-10 00:53:00,34.0,-99.9,-100.00,ENE,68,0.0,-999.0,-999,0.00,,,-99.99,,2013-01-10 06:53:00,
2013-01-10 01:02:00,32.0,-99.9,-100.00,ENE,64,1.0,-999.0,-999,0.00,,,0.00,,2013-01-10 07:02:00,
2013-01-10 01:12:00,32.0,-99.9,-100.00,ENE,64,1.0,-999.0,-999,0.00,,,0.00,,2013-01-10 07:12:00,
2013-01-10 01:22:00,32.0,-99.9,-100.00,ENE,64,1.0,-999.0,-999,0.00,,,0.00,,2013-01-10 07:22:00,
2013-01-10 02:02:00,36.0,-99.9,-100.00,SE,134,1.0,-999.0,-999,0.00,,,0.00,,2013-01-10 08:02:00,
2013-01-10 02:12:00,36.0,-99.9,-100.00,SE,134,1.0,-999.0,-999,0.00,,,0.00,,2013-01-10 08:12:00,
2013-01-10 02:22:00,36.0,-99.9,-100.00,SE,134,1.0,-999.0,-999,0.00,,,0.00,,2013-01-10 08:22:00,
2013-01-10 02:33:00,33.0,-99.9,-100.00,North,351,2.0,-999.0,-999,0.00,,,0.00,,2013-01-10 08:33:00,
2013-01-10 02:42:00,33.0,-99.9,-100.00,North,351,2.0,-999.0,-999,0.00,,,0.00,,2013-01-10 08:42:00,
2013-01-10 02:53:00,33.0,-99.9,-100.00,North,351,2.0,-999.0,-999,0.00,,,0.00,,2013-01-10 08:53:00,
2013-01-10 03:02:00,34.0,-99.9,-100.00,NNW,334,3.0,-999.0,-999,0.00,,,-99.99,,2013-01-10 09:02:00,
2013-01-10 03:12:00,34.0,-99.9,-100.00,NNW,334,3.0,-999.0,-999,0.00,,,-99.99,,2013-01-10 09:12:00,
2013-01-10 03:22:00,34.0,-99.9,-100.00,NNW,334,3.0,-999.0,-999,0.00,,,-99.99,,2013-01-10 09:22:00,
2013-01-10 03:32:00,34.0,-99.9,-100.00,NNW,338,2.0,-999.0,-999,0.00,,,0.00,,2013-01-10 09:32:00,
2013-01-10 03:43:00,34.0,-99.9,-100.00,NNW,338,2.0,-999.0,-999,0.00,,,0.00,,2013-01-10 09:43:00,
2013-01-10 03:53:00,34.0,-99.9,-100.00,NNW,338,2.0,-999.0,-999,0.00,,,0.00,,2013-01-10 09:53:00,
2013-01-10 04:03:00,35.0,-99.9,-100.00,South,171,1.0,-999.0,-999,0.00,,,0.00,,2013-01-10 10:03:00,
2013-01-10 04:12:00,35.0,-99.9,-100.00,South,171,1.0,-999.0,-999,0.00,,,0.00,,2013-01-10 10:12:00,
2013-01-10 04:22:00,35.0,-99.9,-100.00,South,171,1.0,-999.0,-999,0.00,,,0.00,,2013-01-10 10:22:00,
2013-01-10 04:33:00,38.0,-99.9,-100.00,SSE,158,5.0,-999.0,-999,0.00,,,0.00,,2013-01-10 10:33:00,
2013-01-10 04:43:00,38.0,-99.9,-100.00,SSE,158,5.0,-999.0,-999,0.00,,,0.00,,2013-01-10 10:43:00,
2013-01-10 04:53:00,38.0,-99.9,-100.00,SSE,158,5.0,-999.0,-999,0.00,,,0.00,,2013-01-10 10:53:00,
2013-01-10 05:03:00,39.0,-99.9,-100.00,SE,143,6.0,-999.0,-999,0.00,,,0.00,,2013-01-10 11:03:00,
2013-01-10 05:12:00,39.0,-99.9,-100.00,SE,143,6.0,-999.0,-999,0.00,,,0.00,,2013-01-10 11:12:00,
2013-01-10 05:23:00,39.0,-99.9,-100.00,SE,143,6.0,-999.0,-999,0.00,,,0.00,,2013-01-10 11:23:00,
2013-01-10 05:33:00,38.0,-99.9,-100.00,SSE,147,5.0,-999.0,-999,0.00,,,0.00,,2013-01-10 11:33:00,
2013-01-10 05:43:00,38.0,-99.9,-100.00,SSE,147,5.0,-999.0,-999,0.00,,,0.00,,2013-01-10 11:43:00,
2013-01-10 05:53:00,38.0,-99.9,-100.00,SSE,147,5.0,-999.0,-999,0.00,,,0.00,,2013-01-10 11:53:00,
2013-01-10 06:03:00,39.0,-99.9,-100.00,SSE,151,3.0,-999.0,-999,0.00,,,0.00,,2013-01-10 12:03:00,
2013-01-10 06:12:00,39.0,-99.9,-100.00,SSE,151,3.0,-999.0,-999,0.00,,,0.00,,2013-01-10 12:12:00,
2013-01-10 06:22:00,39.0,-99.9,-100.00,SSE,151,3.0,-999.0,-999,0.00,,,0.00,,2013-01-10 12:22:00,
2013-01-10 06:33:00,39.0,-99.9,-100.00,SE,143,3.0,-999.0,-999,0.00,,,0.00,,2013-01-10 12:33:00,
2013-01-10 06:43:00,39.0,-99.9,-100.00,SE,143,3.0,-999.0,-999,0.00,,,0.00,,2013-01-10 12:43:00,
2013-01-10 06:53:00,39.0,-99.9,-100.00,SE,143,3.0,-999.0,-999,0.00,,,0.00,,2013-01-10 12:53:00,
2013-01-10 07:02:00,39.0,-99.9,-100.00,South,172,2.0,-999.0,-999,0.00,,,0.00,,2013-01-10 13:02:00,
2013-01-10 07:12:00,39.0,-99.9,-100.00,South,172,2.0,-999.0,-999,0.00,,,0.00,,2013-01-10 13:12:00,
2013-01-10 07:22:00,39.0,-99.9,-100.00,South,172,2.0,-999.0,-999,0.00,,,0.00,,2013-01-10 13:22:00,
2013-01-10 07:33:00,39.0,-99.9,-100.00,SSE,164,2.0,-999.0,-999,0.00,,,0.00,,2013-01-10 13:33:00,
2013-01-10 07:42:00,39.0,-99.9,-100.00,SSE,164,2.0,-999.0,-999,0.00,,,0.00,,2013-01-10 13:42:00,
2013-01-10 07:53:00,39.0,-99.9,-100.00,SSE,164,2.0,-999.0,-999,0.00,,,0.00,,2013-01-10 13:53:00,
2013-01-10 08:03:00,40.0,-99.9,-100.00,SSE,165,3.0,-999.0,-999,0.00,,,0.00,,2013-01-10 14:03:00,
2013-01-10 08:12:00,40.0,-99.9,-100.00,SSE,165,3.0,-999.0,-999,0.00,,,0.00,,2013-01-10 14:12:00,
2013-01-10 08:23:00,40.0,-99.9,-100.00,SSE,165,3.0,-999.0,-999,0.00,,,0.00,,2013-01-10 14:23:00,
2013-01-10 08:30:00,40.0,-99.9,-100.00,East,89,1.0,-999.0,-999,0.00,,,0.00,,2013-01-10 14:30:00,
2013-01-10 08:33:00,41.0,-99.9,-100.00,SSE,155,5.0,-999.0,-999,0.00,,,0.00,,2013-01-10 14:33:00,
2013-01-10 08:44:00,41.0,-99.9,-100.00,SSE,155,5.0,-999.0,-999,0.00,,,0.00,,2013-01-10 14:44:00,
2013-01-10 08:53:00,41.0,-99.9,-100.00,SSE,155,5.0,-999.0,-999,0.00,,,0.00,,2013-01-10 14:53:00,
2013-01-10 09:03:00,40.0,-99.9,-100.00,East,89,1.0,-999.0,-999,0.00,,,0.00,,2013-01-10 15:03:00,
2013-01-10 09:12:00,40.0,-99.9,-100.00,East,89,1.0,-999.0,-999,0.00,,,0.00,,2013-01-10 15:12:00,
2013-01-10 09:23:00,40.0,-99.9,-100.00,East,89,1.0,-999.0,-999,0.00,,,0.00,,2013-01-10 15:23:00,
2013-01-10 09:43:00,40.0,-99.9,-100.00,SE,124,2.0,-999.0,-999,0.00,,,0.00,,2013-01-10 15:43:00,
2013-01-10 09:53:00,40.0,-99.9,-100.00,SE,124,2.0,-999.0,-999,0.00,,,0.00,,2013-01-10 15:53:00,
2013-01-10 10:03:00,40.0,-99.9,-100.00,ESE,123,2.0,-999.0,-999,0.00,,,0.00,,2013-01-10 16:03:00,
2013-01-10 10:13:00,40.0,-99.9,-100.00,ESE,123,2.0,-999.0,-999,0.00,,,0.00,,2013-01-10 16:13:00,
2013-01-10 10:23:00,40.0,-99.9,-100.00,ESE,123,2.0,-999.0,-999,0.00,,,0.00,,2013-01-10 16:23:00,
2013-01-10 10:33:00,40.0,-99.9,-100.00,SE,142,8.0,-999.0,-999,0.00,,,0.00,,2013-01-10 16:33:00,
2013-01-10 10:43:00,40.0,-99.9,-100.00,SE,142,8.0,-999.0,-999,0.00,,,0.00,,2013-01-10 16:43:00,
2013-01-10 10:53:00,40.0,-99.9,-100.00,SE,142,8.0,-999.0,-999,0.00,,,0.00,,2013-01-10 16:53:00,
2013-01-10 11:03:00,39.0,-99.9,-100.00,SSE,158,5.0,-999.0,-999,0.00,,,0.00,,2013-01-10 17:03:00,
2013-01-10 11:13:00,39.0,-99.9,-100.00,SSE,158,5.0,-999.0,-999,0.00,,,0.00,,2013-01-10 17:13:00,
2013-01-10 11:23:00,39.0,-99.9,-100.00,SSE,158,5.0,-999.0,-999,0.00,,,0.00,,2013-01-10 17:23:00,
2013-01-10 11:33:00,38.0,-99.9,-100.00,SSE,149,3.0,-999.0,-999,0.02,,,0.02,,2013-01-10 17:33:00,
2013-01-10 11:43:00,38.0,-99.9,-100.00,SSE,149,3.0,-999.0,-999,0.02,,,0.02,,2013-01-10 17:43:00,
2013-01-10 11:54:00,38.0,-99.9,-100.00,SSE,149,3.0,-999.0,-999,0.02,,,0.02,,2013-01-10 17:54:00,
2013-01-10 12:04:00,38.0,-99.9,-100.00,South,182,3.0,-999.0,-999,0.04,,,0.04,,2013-01-10 18:04:00,
2013-01-10 12:13:00,38.0,-99.9,-100.00,South,182,3.0,-999.0,-999,0.04,,,0.04,,2013-01-10 18:13:00,
2013-01-10 12:24:00,38.0,-99.9,-100.00,South,182,3.0,-999.0,-999,0.04,,,0.04,,2013-01-10 18:24:00,
2013-01-10 12:33:00,38.0,-99.9,-100.00,ESE,111,4.0,-999.0,-999,0.02,,,0.04,,2013-01-10 18:33:00,
2013-01-10 12:44:00,38.0,-99.9,-100.00,ESE,111,4.0,-999.0,-999,0.02,,,0.04,,2013-01-10 18:44:00,
2013-01-10 12:53:00,38.0,-99.9,-100.00,ESE,111,4.0,-999.0,-999,0.02,,,0.04,,2013-01-10 18:53:00,
2013-01-10 13:03:00,39.0,-99.9,-100.00,SE,139,5.0,-999.0,-999,0.01,,,0.05,,2013-01-10 19:03:00,
2013-01-10 13:13:00,39.0,-99.9,-100.00,SE,139,5.0,-999.0,-999,0.01,,,0.05,,2013-01-10 19:13:00,
2013-01-10 13:23:00,39.0,-99.9,-100.00,SE,139,5.0,-999.0,-999,0.01,,,0.05,,2013-01-10 19:23:00,
2013-01-10 13:33:00,40.0,-99.9,-100.00,SE,146,8.0,-999.0,-999,0.01,,,0.05,,2013-01-10 19:33:00,
2013-01-10 13:44:00,40.0,-99.9,-100.00,SE,146,8.0,-999.0,-999,0.01,,,0.05,,2013-01-10 19:44:00,
2013-01-10 13:54:00,40.0,-99.9,-100.00,SE,146,8.0,-999.0,-999,0.01,,,0.05,,2013-01-10 19:54:00,
2013-01-10 14:03:00,40.0,-99.9,-100.00,SE,140,7.0,-999.0,-999,0.00,,,0.05,,2013-01-10 20:03:00,
2013-01-10 14:13:00,40.0,-99.9,-100.00,SE,140,7.0,-999.0,-999,0.00,,,0.05,,2013-01-10 20:13:00,
2013-01-10 14:24:00,40.0,-99.9,-100.00,SE,140,7.0,-999.0,-999,0.00,,,0.05,,2013-01-10 20:24:00,
2013-01-10 14:33:00,40.0,-99.9,-100.00,SE,144,9.0,-999.0,-999,0.00,,,0.05,,2013-01-10 20:33:00,
2013-01-10 14:43:00,40.0,-99.9,-100.00,SE,144,9.0,-999.0,-999,0.00,,,0.05,,2013-01-10 20:43:00,
2013-01-10 14:54:00,40.0,-99.9,-100.00,SE,144,9.0,-999.0,-999,0.00,,,0.05,,2013-01-10 20:54:00,
2013-01-10 15:04:00,41.0,-99.9,-100.00,SE,146,8.0,-999.0,-999,0.00,,,0.05,,2013-01-10 21:04:00,
2013-01-10 15:13:00,41.0,-99.9,-100.00,SE,146,8.0,-999.0,-999,0.00,,,0.05,,2013-01-10 21:13:00,
2013-01-10 15:23:00,41.0,-99.9,-100.00,SE,146,8.0,-999.0,-999,0.00,,,0.05,,2013-01-10 21:23:00,
2013-01-10 15:33:00,40.0,-99.9,-100.00,SE,142,8.0,-999.0,-999,0.00,,,0.05,,2013-01-10 21:33:00,
2013-01-10 15:44:00,40.0,-99.9,-100.00,SE,142,8.0,-999.0,-999,0.00,,,0.05,,2013-01-10 21:44:00,
2013-01-10 15:54:00,40.0,-99.9,-100.00,SE,142,8.0,-999.0,-999,0.00,,,0.05,,2013-01-10 21:54:00,
2013-01-10 16:04:00,41.0,-99.9,-100.00,SE,138,8.0,-999.0,-999,0.00,,,0.05,,2013-01-10 22:04:00,
2013-01-10 16:13:00,41.0,-99.9,-100.00,SE,138,8.0,-999.0,-999,0.00,,,0.05,,2013-01-10 22:13:00,
2013-01-10 16:27:00,41.0,-99.9,-100.00,SE,138,8.0,-999.0,-999,0.00,,,0.05,,2013-01-10 22:27:00,
2013-01-10 16:34:00,41.0,-99.9,-100.00,SE,139,6.0,-999.0,-999,0.00,,,0.05,,2013-01-10 22:34:00,
2013-01-10 16:44:00,41.0,-99.9,-100.00,SE,139,6.0,-999.0,-999,0.00,,,0.05,,2013-01-10 22:44:00,
2013-01-10 17:03:00,42.0,-99.9,-100.00,SE,143,6.0,-999.0,-999,0.00,,,0.05,,2013-01-10 23:03:00,
2013-01-10 17:13:00,42.0,-99.9,-100.00,SE,143,6.0,-999.0,-999,0.00,,,0.05,,2013-01-10 23:13:00,
2013-01-10 17:23:00,42.0,-99.9,-100.00,SE,143,6.0,-999.0,-999,0.00,,,0.05,,2013-01-10 23:23:00,
2013-01-10 17:33:00,42.0,-99.9,-100.00,ESE,123,3.0,-999.0,-999,0.01,,,0.06,,2013-01-10 23:33:00,
2013-01-10 17:43:00,42.0,-99.9,-100.00,ESE,123,3.0,-999.0,-999,0.01,,,0.06,,2013-01-10 23:43:00,
2013-01-10 17:53:00,42.0,-99.9,-100.00,ESE,123,3.0,-999.0,-999,0.01,,,0.06,,2013-01-10 23:53:00,
2013-01-10 18:03:00,43.0,-99.9,-100.00,SE,144,8.0,-999.0,-999,0.01,,,0.06,,2013-01-11 00:03:00,
2013-01-10 18:13:00,43.0,-99.9,-100.00,SE,144,8.0,-999.0,-999,0.01,,,0.06,,2013-01-11 00:13:00,
2013-01-10 18:23:00,43.0,-99.9,-100.00,SE,144,8.0,-999.0,-999,0.01,,,0.06,,2013-01-11 00:23:00,
2013-01-10 18:33:00,43.0,-99.9,-100.00,SE,139,5.0,-999.0,-999,0.02,,,0.08,,2013-01-11 00:33:00,
2013-01-10 18:43:00,43.0,-99.9,-100.00,SE,139,5.0,-999.0,-999,0.02,,,0.08,,2013-01-11 00:43:00,
2013-01-10 18:53:00,43.0,-99.9,-100.00,SE,139,5.0,-999.0,-999,0.02,,,0.08,,2013-01-11 00:53:00,
2013-01-10 19:03:00,43.0,-99.9,-100.00,SE,141,5.0,-999.0,-999,0.03,,,0.09,,2013-01-11 01:03:00,
2013-01-10 19:13:00,43.0,-99.9,-100.00,SE,141,5.0,-999.0,-999,0.03,,,0.09,,2013-01-11 01:13:00,
2013-01-10 19:24:00,43.0,-99.9,-100.00,SE,141,5.0,-999.0,-999,0.03,,,0.09,,2013-01-11 01:24:00,
2013-01-10 19:34:00,41.0,-99.9,-100.00,ESE,122,3.0,-999.0,-999,0.05,,,0.13,,2013-01-11 01:34:00,
2013-01-10 19:44:00,41.0,-99.9,-100.00,ESE,122,3.0,-999.0,-999,0.05,,,0.13,,2013-01-11 01:44:00,
2013-01-10 19:53:00,41.0,-99.9,-100.00,ESE,122,3.0,-999.0,-999,0.05,,,0.13,,2013-01-11 01:53:00,
2013-01-10 20:03:00,44.0,-99.9,-100.00,SE,138,6.0,-999.0,-999,0.14,,,0.23,,2013-01-11 02:03:00,
2013-01-10 20:13:00,44.0,-99.9,-100.00,SE,138,6.0,-999.0,-999,0.14,,,0.23,,2013-01-11 02:13:00,
2013-01-10 20:24:00,44.0,-99.9,-100.00,SE,138,6.0,-999.0,-999,0.14,,,0.23,,2013-01-11 02:24:00,
2013-01-10 20:34:00,44.0,-99.9,-100.00,SE,140,3.0,-999.0,-999,0.13,,,0.26,,2013-01-11 02:34:00,
2013-01-10 20:44:00,44.0,-99.9,-100.00,SE,140,3.0,-999.0,-999,0.13,,,0.26,,2013-01-11 02:44:00,
2013-01-10 20:54:00,44.0,-99.9,-100.00,SE,140,3.0,-999.0,-999,0.13,,,0.26,,2013-01-11 02:54:00,
2013-01-10 21:03:00,45.0,-99.9,-100.00,SE,146,4.0,-999.0,-999,0.03,,,0.26,,2013-01-11 03:03:00,
2013-01-10 21:13:00,45.0,-99.9,-100.00,SE,146,4.0,-999.0,-999,0.03,,,0.26,,2013-01-11 03:13:00,
2013-01-10 21:23:00,45.0,-99.9,-100.00,SE,146,4.0,-999.0,-999,0.03,,,0.26,,2013-01-11 03:23:00,
2013-01-10 21:34:00,45.0,-99.9,-100.00,SE,143,4.0,-999.0,-999,0.00,,,0.26,,2013-01-11 03:34:00,
2013-01-10 21:43:00,45.0,-99.9,-100.00,SE,143,4.0,-999.0,-999,0.00,,,0.26,,2013-01-11 03:43:00,
2013-01-10 21:53:00,45.0,-99.9,-100.00,SE,143,4.0,-999.0,-999,0.00,,,0.26,,2013-01-11 03:53:00,
2013-01-10 22:03:00,44.0,-99.9,-100.00,East,89,0.0,-999.0,-999,0.00,,,0.26,,2013-01-11 04:03:00,
2013-01-10 22:12:00,44.0,-99.9,-100.00,East,89,0.0,-999.0,-999,0.00,,,0.26,,2013-01-11 04:12:00,
2013-01-10 22:23:00,44.0,-99.9,-100.00,East,89,0.0,-999.0,-999,0.00,,,0.26,,2013-01-11 04:23:00,
2013-01-10 22:33:00,43.0,-99.9,-100.00,NW,320,2.0,-999.0,-999,0.02,,,0.28,,2013-01-11 04:33:00,
2013-01-10 22:43:00,43.0,-99.9,-100.00,NW,320,2.0,-999.0,-999,0.02,,,0.28,,2013-01-11 04:43:00,
2013-01-10 22:53:00,43.0,-99.9,-100.00,NW,320,2.0,-999.0,-999,0.02,,,0.28,,2013-01-11 04:53:00,
2013-01-10 23:04:00,43.0,-99.9,-100.00,SSE,168,1.0,-999.0,-999,0.02,,,0.28,,2013-01-11 05:04:00,
2013-01-10 23:13:00,43.0,-99.9,-100.00,SSE,168,1.0,-999.0,-999,0.02,,,0.28,,2013-01-11 05:13:00,
2013-01-10 23:23:00,43.0,-99.9,-100.00,SSE,168,1.0,-999.0,-999,0.02,,,0.28,,2013-01-11 05:23:00,
2013-01-10 23:33:00,43.0,-99.9,-100.00,WNW,291,1.0,-999.0,-999,0.03,,,0.31,,2013-01-11 05:33:00,
2013-01-10 23:43:00,43.0,-99.9,-100.00,WNW,291,1.0,-999.0,-999,0.03,,,0.31,,2013-01-11 05:43:00,
2013-01-10 23:53:00,43.0,-99.9,-100.00,WNW,291,1.0,-999.0,-999,0.03,,,0.31,,2013-01-11 05:53:00,